TimeHST,TemperatureF,Dew PointF,Humidity,Sea Level PressureIn,VisibilityMPH,Wind Direction,Wind SpeedMPH,Gust SpeedMPH,PrecipitationIn,Events,Conditions,WindDirDegrees,DateUTC
12:53 AM,66.0,63.0,90,30.10,10.0,WSW,5.8,-,0.02,,Mostly Cloudy,240,2013-03-07 10:53:00
1:53 AM,64.9,62.1,90,30.08,10.0,SW,4.6,-,N/A,,Mostly Cloudy,230,2013-03-07 11:53:00
2:01 AM,64.9,62.1,90,30.08,10.0,Calm,Calm,-,N/A,,Scattered Clouds,0,2013-03-07 12:01:00
2:12 AM,64.9,62.1,90,30.08,10.0,Calm,Calm,-,N/A,,Partly Cloudy,0,2013-03-07 12:12:00
2:53 AM,63.0,59.0,87,30.06,10.0,SW,5.8,-,N/A,,Clear,230,2013-03-07 12:53:00
3:53 AM,62.1,57.0,84,30.05,10.0,SW,8.1,-,N/A,,Clear,230,2013-03-07 13:53:00
4:53 AM,62.1,55.0,78,30.05,10.0,SW,8.1,-,N/A,,Clear,230,2013-03-07 14:53:00
5:53 AM,61.0,53.1,75,30.07,10.0,SW,8.1,-,N/A,,Mostly Cloudy,230,2013-03-07 15:53:00
6:53 AM,62.1,53.1,72,30.08,10.0,SW,9.2,-,N/A,,Mostly Cloudy,230,2013-03-07 16:53:00
7:53 AM,66.0,54.0,65,30.10,10.0,WSW,6.9,-,N/A,,Mostly Cloudy,240,2013-03-07 17:53:00
8:53 AM,70.0,59.0,68,30.11,10.0,South,4.6,-,N/A,,Mostly Cloudy,180,2013-03-07 18:53:00
9:53 AM,72.0,61.0,68,30.10,10.0,SSW,4.6,-,N/A,,Mostly Cloudy,200,2013-03-07 19:53:00
10:53 AM,75.9,59.0,56,30.09,10.0,SW,5.8,-,N/A,,Mostly Cloudy,220,2013-03-07 20:53:00
11:53 AM,78.1,59.0,52,30.07,10.0,SE,6.9,-,N/A,,Mostly Cloudy,140,2013-03-07 21:53:00
12:53 PM,79.0,59.0,50,30.04,10.0,East,13.8,-,N/A,,Scattered Clouds,90,2013-03-07 22:53:00
1:53 PM,79.0,60.1,52,30.02,10.0,East,12.7,-,N/A,,Scattered Clouds,100,2013-03-07 23:53:00
2:53 PM,82.0,61.0,49,30.00,10.0,ESE,11.5,-,N/A,,Scattered Clouds,110,2013-03-08 00:53:00
3:53 PM,75.9,61.0,60,29.99,10.0,SE,10.4,-,N/A,,Partly Cloudy,130,2013-03-08 01:53:00
4:53 PM,75.0,61.0,62,29.99,10.0,East,10.4,-,N/A,,Overcast,100,2013-03-08 02:53:00
5:53 PM,73.0,63.0,71,30.01,10.0,ESE,4.6,-,N/A,,Mostly Cloudy,110,2013-03-08 03:53:00
6:53 PM,73.0,63.0,71,30.03,10.0,Calm,Calm,-,N/A,,Clear,0,2013-03-08 04:53:00
7:53 PM,70.0,61.0,73,30.05,10.0,SSW,3.5,-,N/A,,Mostly Cloudy,200,2013-03-08 05:53:00
8:53 PM,70.0,61.0,73,30.07,10.0,WSW,5.8,-,N/A,,Clear,240,2013-03-08 06:53:00
9:53 PM,66.0,61.0,84,30.08,10.0,Calm,Calm,-,N/A,,Partly Cloudy,0,2013-03-08 07:53:00
10:53 PM,66.0,61.0,84,30.07,10.0,SW,6.9,-,N/A,,Partly Cloudy,230,2013-03-08 08:53:00
11:53 PM,66.0,60.1,81,30.05,10.0,SSW,6.9,-,N/A,,Mostly Cloudy,200,2013-03-08 09:53:00